Location: Erfurt
(50.9688°N, 11.0193°E)
Time: 05:39:02
(UTC+02:00)

ISS - Visible Passes

Search period start: 27 May 2018 00:00
Search period end: 06 June 2018 00:00
Orbit: 402 x 407 km, 51.6° (Epoch: 27 May)

Date Brightness Start Highest point End Pass type
(mag) Time Alt. Az. Time Alt. Az. Time Alt. Az.
27 May -4.0 00:21:49 10° WNW 00:25:07 83° SSW 00:26:26 33° ESE visible
27 May -1.4 01:58:32 10° W 01:59:02 13° W 01:59:02 13° W visible
27 May -3.8 21:53:04 10° WSW 21:56:21 88° S 21:59:38 10° E visible
27 May -3.8 23:29:38 10° W 23:32:54 83° N 23:35:43 13° E visible
28 May -2.8 01:06:10 10° W 01:08:21 31° WSW 01:08:21 31° WSW visible
28 May -3.7 22:37:23 10° W 22:40:40 77° N 22:43:56 10° E visible
29 May -3.8 00:13:55 10° W 00:17:08 56° SSW 00:17:43 47° SSE visible
29 May -3.9 23:21:40 10° WNW 23:24:58 76° SSW 23:27:06 20° ESE visible
30 May -1.8 00:58:28 10° W 00:59:44 17° WSW 00:59:44 17° WSW visible
30 May -3.8 22:29:26 10° W 22:32:43 87° NNE 22:35:59 10° E visible
31 May -3.1 00:06:01 10° W 00:09:02 34° SSW 00:09:09 34° SSW visible
31 May -3.6 23:13:41 10° W 23:16:53 50° SSW 23:18:36 23° SE visible
01 Jun -3.8 22:21:24 10° WNW 22:24:40 69° SSW 22:27:56 10° ESE visible
01 Jun -2.1 23:58:19 10° W 00:00:41 19° SW 00:00:41 19° SW visible
02 Jun -2.7 23:05:46 10° W 23:08:40 29° SSW 23:10:11 20° SSE visible
03 Jun -3.2 22:13:21 10° W 22:16:30 43° SSW 22:19:38 10° SE visible
03 Jun -1.3 23:51:41 10° SW 23:52:19 10° SW 23:52:19 10° SW visible
04 Jun -1.8 22:58:06 10° W 23:00:17 17° SW 23:01:52 13° S visible
